When you browse on this site, cookies collect data to enhance your experience and personalize the content and advertising you see.
Visit our Privacy Policy to learn more. By continuing to use the site, you agree to this use of cookies and data.
  • In Romania
  • List of Countries
  • For 7 days
  • Water Temperature
  • Satellite Maps
  • Weather Map
  • Weather Widgets
  • user-avatar
    Login

    Hourly Weather Santa Fe

    Today, 10 December, Monday

    Time Temperature Precipitation Wind Pressure Humidity
    00:00 -5°C° 0 mm 2 mps 588 mmHg 48%
    01:00 -5°C° 0 mm 2 mps 588 mmHg 47%
    02:00 -5°C° 0 mm 2 mps 588 mmHg 46%
    03:00 -5°C° 0 mm 2 mps 588 mmHg 47%
    04:00 -5°C° 0 mm 2 mps 588 mmHg 47%
    05:00 -5°C° 0 mm 2 mps 587 mmHg 48%
    06:00 -4°C° 0 mm 2 mps 588 mmHg 45%
    07:00 -4°C° 0 mm 2 mps 588 mmHg 43%
    08:00 -3°C° 0 mm 2 mps 588 mmHg 40%
    09:00 +1°C° 0 mm 2 mps 589 mmHg 34%
    10:00 +4°C° 0 mm 2 mps 590 mmHg 28%
    11:00 +6°C° 0 mm 2 mps 590 mmHg 22%
    12:00 +7°C° 0 mm 2 mps 590 mmHg 21%
    13:00 +8°C° 0 mm 2 mps 590 mmHg 21%
    14:00 +8°C° 0 mm 2 mps 589 mmHg 21%
    15:00 +6°C° 0 mm 2 mps 588 mmHg 28%
    16:00 +3°C° 0 mm 2 mps 587 mmHg 35%
    17:00 -1°C° 0 mm 2 mps 585 mmHg 42%
    18:00 -1°C° 0 mm 2 mps 585 mmHg 41%
    19:00 -1°C° 0 mm 2 mps 585 mmHg 39%
    20:00 -2°C° 0 mm 2 mps 585 mmHg 37%
    21:00 -2°C° 0 mm 2 mps 585 mmHg 37%
    22:00 -2°C° 0 mm 2 mps 585 mmHg 36%
    23:00 -1°C° 0 mm 2 mps 585 mmHg 36%

    Tomorrow, 11 December, Tuesday

    Time Temperature Precipitation Wind Pressure Humidity
    00:00 -1°C° 0 mm 2 mps 585 mmHg 35%
    01:00 -1°C° 0 mm 2 mps 585 mmHg 35%
    02:00 -1°C° 0 mm 2 mps 585 mmHg 34%
    03:00 -1°C° 0 mm 2 mps 584 mmHg 35%
    04:00 -1°C° 0 mm 2 mps 584 mmHg 36%
    05:00 -1°C° 0 mm 2 mps 584 mmHg 36%
    06:00 -1°C° 0 mm 2 mps 584 mmHg 37%
    07:00 +1°C° 0 mm 2 mps 584 mmHg 37%
    08:00 +1°C° 0 mm 2 mps 585 mmHg 38%
    09:00 +2°C° 0 mm 3 mps 585 mmHg 34%
    10:00 +5°C° 0 mm 3 mps 586 mmHg 30%
    11:00 +7°C° 0 mm 4 mps 587 mmHg 26%
    12:00 +7°C° 0 mm 4 mps 586 mmHg 26%
    13:00 +8°C° 0 mm 5 mps 586 mmHg 27%
    14:00 +8°C° 0 mm 6 mps 585 mmHg 27%
    15:00 +6°C° 0 mm 5 mps 585 mmHg 35%
    16:00 +3°C° 0 mm 5 mps 584 mmHg 43%
    17:00 +3°C° 0 mm 4 mps 584 mmHg 51%
    18:00 +1°C° 0 mm 4 mps 584 mmHg 53%
    19:00 +1°C° 0 mm 3 mps 583 mmHg 56%
    20:00 +1°C° 0 mm 3 mps 583 mmHg 59%
    21:00 0°C° 0 mm 3 mps 583 mmHg 61%
    22:00 -1°C° 0 mm 3 mps 583 mmHg 63%
    23:00 -1°C° 0 mm 3 mps 583 mmHg 65%

    Day after tomorrow, 12 December, Wednesday

    Time Temperature Precipitation Wind Pressure Humidity
    00:00 -1°C° 0 mm 3 mps 583 mmHg 66%
    01:00 -2°C° 0 mm 3 mps 583 mmHg 66%
    02:00 -2°C° 0 mm 3 mps 583 mmHg 67%
    03:00 -2°C° 0 mm 3 mps 582 mmHg 65%
    04:00 -2°C° 0 mm 3 mps 582 mmHg 64%
    05:00 -2°C° 0 mm 3 mps 582 mmHg 62%
    06:00 -2°C° 0 mm 3 mps 582 mmHg 60%
    07:00 -1°C° 0 mm 3 mps 582 mmHg 57%
    08:00 -2°C° 0 mm 4 mps 583 mmHg 55%
    09:00 0°C° 0 mm 4 mps 583 mmHg 49%
    10:00 +2°C° 0 mm 5 mps 583 mmHg 43%
    11:00 +4°C° 0 mm 6 mps 583 mmHg 37%
    12:00 +5°C° 0 mm 7 mps 582 mmHg 35%
    13:00 +5°C° 0 mm 8 mps 582 mmHg 33%
    14:00 +6°C° 0 mm 9 mps 581 mmHg 30%
    15:00 +3°C° 0 mm 9 mps 580 mmHg 34%
    16:00 +2°C° 0 mm 9 mps 579 mmHg 38%
    17:00 0°C° 0 mm 9 mps 579 mmHg 42%
    18:00 -2°C° 0.1 mm 10 mps 579 mmHg 46%
    19:00 -4°C° 0.1 mm 11 mps 579 mmHg 51%
    20:00 -7°C° 0.1 mm 13 mps 579 mmHg 55%
    21:00 -8°C° 0 mm 12 mps 580 mmHg 52%
    22:00 -8°C° 0 mm 11 mps 580 mmHg 49%
    23:00 -9°C° 0 mm 10 mps 581 mmHg 46%

    13 December, Thursday

    Time Temperature Precipitation Wind Pressure Humidity
    00:00 -9°C° 0 mm 9 mps 581 mmHg 44%
    01:00 -8°C° 0 mm 8 mps 582 mmHg 41%
    02:00 -9°C° 0 mm 7 mps 582 mmHg 39%
    03:00 -9°C° 0 mm 6 mps 582 mmHg 39%
    04:00 -10°C° 0 mm 6 mps 583 mmHg 39%
    05:00 -10°C° 0 mm 5 mps 583 mmHg 40%
    06:00 -10°C° 0 mm 5 mps 584 mmHg 39%
    07:00 -9°C° 0 mm 4 mps 585 mmHg 38%
    08:00 -8°C° 0 mm 4 mps 586 mmHg 38%
    09:00 -6°C° 0 mm 5 mps 587 mmHg 31%
    10:00 -4°C° 0 mm 5 mps 587 mmHg 25%
    11:00 -2°C° 0 mm 6 mps 588 mmHg 19%
    12:00 -1°C° 0 mm 6 mps 588 mmHg 18%
    13:00 0°C° 0 mm 5 mps 587 mmHg 18%
    14:00 +1°C° 0 mm 5 mps 587 mmHg 18%
    15:00 -1°C° 0 mm 4 mps 586 mmHg 23%
    16:00 -2°C° 0 mm 4 mps 586 mmHg 28%
    17:00 -4°C° 0 mm 3 mps 585 mmHg 33%
    18:00 -5°C° 0 mm 3 mps 586 mmHg 35%
    19:00 -5°C° 0 mm 3 mps 586 mmHg 37%
    20:00 -6°C° 0 mm 3 mps 586 mmHg 39%
    21:00 -6°C° 0 mm 3 mps 586 mmHg 39%
    22:00 -6°C° 0 mm 3 mps 586 mmHg 38%
    23:00 -6°C° 0 mm 3 mps 587 mmHg 37%

    14 December, Friday

    Time Temperature Precipitation Wind Pressure Humidity
    00:00 -5°C° 0 mm 2 mps 587 mmHg 36%
    01:00 -5°C° 0 mm 2 mps 587 mmHg 35%
    02:00 -4°C° 0 mm 2 mps 587 mmHg 35%
    03:00 -4°C° 0 mm 2 mps 586 mmHg 34%
    04:00 -4°C° 0 mm 2 mps 586 mmHg 33%
    05:00 -4°C° 0 mm 2 mps 586 mmHg 32%
    06:00 -4°C° 0 mm 2 mps 587 mmHg 31%
    07:00 -3°C° 0 mm 2 mps 587 mmHg 30%
    08:00 0°C° 0 mm 1 mps 587 mmHg 29%
    09:00 +1°C° 0 mm 2 mps 588 mmHg 25%
    10:00 +4°C° 0 mm 2 mps 589 mmHg 21%
    11:00 +7°C° 0 mm 2 mps 590 mmHg 18%
    12:00 +7°C° 0 mm 2 mps 589 mmHg 18%
    13:00 +7°C° 0 mm 2 mps 588 mmHg 18%
    14:00 +8°C° 0 mm 2 mps 588 mmHg 19%
    15:00 +5°C° 0 mm 2 mps 587 mmHg 25%
    16:00 +3°C° 0 mm 2 mps 585 mmHg 30%
    17:00 -1°C° 0 mm 2 mps 584 mmHg 36%
    18:00 -1°C° 0 mm 2 mps 584 mmHg 36%
    19:00 -2°C° 0 mm 2 mps 584 mmHg 35%
    20:00 -2°C° 0 mm 2 mps 584 mmHg 35%
    21:00 -2°C° 0 mm 2 mps 584 mmHg 35%
    22:00 -2°C° 0 mm 2 mps 584 mmHg 34%
    23:00 -2°C° 0 mm 2 mps 584 mmHg 34%

    15 December, Saturday

    Time Temperature Precipitation Wind Pressure Humidity
    00:00 -1°C° 0 mm 2 mps 583 mmHg 33%
    01:00 -1°C° 0 mm 2 mps 583 mmHg 32%
    02:00 -1°C° 0 mm 2 mps 583 mmHg 32%
    03:00 -1°C° 0 mm 2 mps 583 mmHg 32%
    04:00 -1°C° 0 mm 2 mps 583 mmHg 32%
    05:00 -1°C° 0 mm 2 mps 582 mmHg 32%
    06:00 -1°C° 0 mm 2 mps 583 mmHg 32%
    07:00 +1°C° 0 mm 2 mps 583 mmHg 31%
    08:00 +2°C° 0 mm 2 mps 584 mmHg 31%
    09:00 +2°C° 0 mm 3 mps 585 mmHg 28%
    10:00 +4°C° 0 mm 3 mps 585 mmHg 25%
    11:00 +7°C° 0 mm 3 mps 586 mmHg 22%
    12:00 +7°C° 0 mm 3 mps 586 mmHg 23%
    13:00 +7°C° 0 mm 3 mps 585 mmHg 23%
    14:00 +8°C° 0 mm 3 mps 585 mmHg 24%
    15:00 +5°C° 0 mm 3 mps 585 mmHg 28%
    16:00 +3°C° 0 mm 3 mps 584 mmHg 32%
    17:00 +2°C° 0 mm 2 mps 584 mmHg 37%
    18:00 +2°C° 0 mm 2 mps 584 mmHg 38%
    19:00 +2°C° 0 mm 2 mps 584 mmHg 38%
    20:00 +1°C° 0 mm 2 mps 585 mmHg 39%
    21:00 +1°C° 0 mm 2 mps 585 mmHg 40%
    22:00 +1°C° 0 mm 2 mps 585 mmHg 40%
    23:00 -1°C° 0 mm 3 mps 586 mmHg 41%
    Show more